Regional Weather Roundup
Issued by NWS

Home | Current Version | Previous Version | Text Only | Print | Product List | Glossary On
Versions: 1 2 3 4 5 6 7 8 9 10 11 12 13 14 15 16 17 18 19 20 21 22 23 24 25 26 27 28 29 30 31 32 33 34 35 36 37 38 39 40 41 42 43 44 45 46 47 48 49 50
000
ASUS43 KDTX 231810
RWRMI
MICHIGAN HOURLY REGIONAL WEATHER ROUNDUP
NATIONAL WEATHER SERVICE DETROIT/PONTIAC MI
200 PM EDT TUE SEP 23 2014

NOTE: "FAIR" INDICATES FEW OR NO CLOUDS BELOW 12,000 FEET WITH NO
SIGNIFICANT WEATHER AND/OR OBSTRUCTION TO VISIBILITY.

MIZ047>049-052>055-059>063-066>070-074>076-081>083-231900-
SOUTHEAST LOWER MICHIGAN

CITY           SKY/WX    TMP DP  RH WIND       PRES   REMARKS
ADRIAN         SUNNY     67  47  48 CALM      30.35F
6HR MIN TEMP:  42; 6HR MAX TEMP:  67;

ALMA           MOSUNNY   71  53  53 SW9       30.32S
ANN ARBOR      SUNNY     69  49  48 VRB5      30.34S
BAD AXE        SUNNY     69  54  59 W8        30.31F
6HR MIN TEMP:  45; 6HR MAX TEMP:  69;

DETROIT CITY   SUNNY     67  48  50 CALM      30.34S
6HR MIN TEMP:  49; 6HR MAX TEMP:  70;

DETROIT        SUNNY     68  50  52 SW7       30.35S
6HR MIN TEMP:  47; 6HR MAX TEMP:  68;

FLINT          SUNNY     71  53  52 W10G17    30.32F
6HR MIN TEMP:  46; 6HR MAX TEMP:  72;

GROSSE ILE     SUNNY     64  52  63 S9        30.34S
HILLSDALE      SUNNY     68  48  47 W3        30.35S
HOWELL         SUNNY     68  50  51 W7        30.33F
6HR MIN TEMP:  45; 6HR MAX TEMP:  68;


CITY           SKY/WX    TMP DP  RH WIND       PRES   REMARKS
JACKSON        SUNNY     68  49  50 S7        30.34F
6HR MIN TEMP:  42; 6HR MAX TEMP:  69;

LAMBERTVILLE   SUNNY     68  46  45 CALM      30.35F
LANSING        SUNNY     70  52  52 SW8       30.34S
6HR MIN TEMP:  47; 6HR MAX TEMP:  71;

LAPEER         NOT AVBL
MASON          SUNNY     68  52  55 W5        30.33F
MONROE         SUNNY     68  48  49 SW5       30.33F
MT. CLEMENS    MOSUNNY   69  48  47 SW6       30.31F
6HR MIN TEMP:  47; 6HR MAX TEMP:  70;

PONTIAC        MOSUNNY   68  50  52 W8        30.33F
6HR MIN TEMP:  46; 6HR MAX TEMP:  68;

PORT HOPE        N/A     69  51  52 VRB7G17   30.29S
6HR MIN TEMP:  50; 6HR MAX TEMP:  70;

PORT HURON     SUNNY     68  52  56 W3        30.33S
TRI CITIES     SUNNY     71  54  54 SW12      30.32S
6HR MIN TEMP:  47; 6HR MAX TEMP:  71;

YPSILANTI      SUNNY     72  50  45 SW8       30.35S
6HR MIN TEMP:  47; 6HR MAX TEMP:  72;

$$
MIZ043>046-050>051-056>058-064>065-071>073-077>080-231900-
SOUTHWEST LOWER MICHIGAN

CITY           SKY/WX    TMP DP  RH WIND       PRES   REMARKS
BATTLE CREEK   SUNNY     70  51  51 W8        30.35S
6HR MIN TEMP:  45; 6HR MAX TEMP:  70;

BENTON HARBOR  SUNNY     65  51  60 W8        30.35S
6HR MIN TEMP:  42; 6HR MAX TEMP:  65;

BIG RAPIDS     SUNNY     70  56  61 W6        30.31F
6HR MIN TEMP:  44; 6HR MAX TEMP:  70;

COLDWATER      SUNNY     71  48  45 CALM      30.35S
6HR MIN TEMP:  42; 6HR MAX TEMP:  71;

HOLLAND        SUNNY     70  54  56 W9        30.35S
6HR MIN TEMP:  47; 6HR MAX TEMP:  70;

GRAND RAPIDS   MOSUNNY   70  56  61 SW8       30.33F
6HR MIN TEMP:  45; 6HR MAX TEMP:  71;

KALAMAZOO      SUNNY     70  50  49 SW8       30.35S
6HR MIN TEMP:  43; 6HR MAX TEMP:  70;

MARSHALL       SUNNY     68  50  52 SW5       30.34S
MUSKEGON       MOSUNNY   67  53  61 SW12      30.34S
6HR MIN TEMP:  50; 6HR MAX TEMP:  68;

$$
MIZ016>042-231900-
NORTHERN LOWER MICHIGAN

CITY           SKY/WX    TMP DP  RH WIND       PRES   REMARKS
ALPENA         SUNNY     73  55  53 W8        30.26R
6HR MIN TEMP:  50; 6HR MAX TEMP:  73;

BEAVER ISLAND  SUNNY     65  56  71 SW9       30.28S
6HR MIN TEMP:  57; 6HR MAX TEMP:  65;

BELLAIRE       SUNNY     70  55  57 SW7       30.28S
6HR MIN TEMP:  44; 6HR MAX TEMP:  70;

CADILLAC       SUNNY     69  55  61 W8        30.30S
CHARLEVOIX     SUNNY     68  58  70 W7        30.31R
6HR MIN TEMP:  55; 6HR MAX TEMP:  68;

FRANKFORT      CLEAR     66  54  65 SW6       30.31S
GAYLORD        SUNNY     69  52  54 W10       30.29R
6HR MIN TEMP:  49; 6HR MAX TEMP:  70;

GRAYLING       SUNNY     74  55  50 W6        30.30R
6HR MIN TEMP:  40; 6HR MAX TEMP:  74;

HARBOR SPRINGS SUNNY     67  55  63 W9        30.27S
HOUGHTON LAKE  SUNNY     70  53  54 W8        30.30S
6HR MIN TEMP:  49; 6HR MAX TEMP:  70;

MANISTEE       SUNNY     68  52  56 W8        30.32S
OSCODA         SUNNY     73  55  52 SW7       30.26F
PELLSTON       SUNNY     69  55  60 VRB7      30.27R
6HR MIN TEMP:  55; 6HR MAX TEMP:  69;

TRAVERSE CITY  MOSUNNY   72  53  51 W9        30.28R
6HR MIN TEMP:  52; 6HR MAX TEMP:  72;

$$
MIZ007>008-015-231900-
EASTERN UPPER MICHIGAN

CITY           SKY/WX    TMP DP  RH WIND       PRES   REMARKS
KINROSS        SUNNY     70  55  60 NW6       30.25R
6HR MIN TEMP:  54; 6HR MAX TEMP:  70;

MACKINAC ISLAN SUNNY     63  57  80 W10G20    30.27R
6HR MIN TEMP:  56; 6HR MAX TEMP:  63;

NEWBERRY       SUNNY     72  56  56 SW3       30.24S
6HR MIN TEMP:  50; 6HR MAX TEMP:  72;

S. S. MARIE    SUNNY     68  53  58 W6        30.24S
6HR MIN TEMP:  46; 6HR MAX TEMP:  68;

$$
MIZ004>006-011>014-085-231900-
CENTRAL UPPER MICHIGAN

CITY           SKY/WX    TMP DP  RH WIND       PRES   REMARKS
MANISTIQUE     SUNNY     65  56  72 S6        30.26S
6HR MIN TEMP:  48; 6HR MAX TEMP:  68;

ESCANABA       SUNNY     66  54  63 S10       30.25S
6HR MIN TEMP:  48; 6HR MAX TEMP:  70;

MENOMINEE      SUNNY     72  54  53 SW8       30.26S
6HR MIN TEMP:  48; 6HR MAX TEMP:  72;

SAWYER-GWINN   SUNNY     73  50  43 SW3       30.25R
$$
MIZ001>003-009>011-084-231900-
WESTERN UPPER MICHIGAN

CITY           SKY/WX    TMP DP  RH WIND       PRES   REMARKS
IRON MOUNTAIN  SUNNY     75  51  43 SW8       30.25S
6HR MIN TEMP:  50; 6HR MAX TEMP:  75;

HOUGHTON       SUNNY     71  53  52 NW8       30.23S
6HR MIN TEMP:  56; 6HR MAX TEMP:  71;

COPPER HARBOR    N/A     61  51  70 N15       30.21S
6HR MIN TEMP:  58; 6HR MAX TEMP:  64;

IRONWOOD       SUNNY     72  52  49 SW9       30.21F
6HR MIN TEMP:  43; 6HR MAX TEMP:  72;

$$

ABBREVIATIONS USED IN REMARKS
   TC - TEMPERATURE IN CELSIUS
  WCI - WIND CHILL INDEX
   HX - HEAT INDEX
  VSB - VISIBILITY



USA.gov is the U.S. government's official web portal to all federal, state and local government web resources and services.